Regional Weather Roundup
Issued by NWS

Home | Current Version | Previous Version | Text Only | Print | Product List | Glossary On
Versions: 1 2 3 4 5 6 7 8 9 10 11 12 13 14 15 16 17 18 19 20 21 22 23 24 25 26 27 28 29 30 31 32 33 34 35 36 37 38 39 40 41 42 43 44 45 46 47 48 49 50
000
ASUS43 KTOP 242208
RWRKS

WEATHER ROUNDUP FOR KANSAS
NATIONAL WEATHER SERVICE GOODLAND KS
500 PM CDT SAT JUN 24 2017

NOTE:  "FAIR" INDICATES FEW OR NO CLOUDS BELOW 12,000 FEET WITH NO
SIGNIFICANT WEATHER AND/OR OBSTRUCTIONS TO VISIBILITY.

KSZ001>006-013>018-027>032-041>047-242300-
NORTHWEST KANSAS

CITY           SKY/WX    TMP DP  RH WIND       PRES   REMARKS
GOODLAND       PTSUNNY   74  51  44 S8        30.24F
HAYS           PTSUNNY   80  52  37 N7        30.20F
HILL CITY      CLOUDY    78  51  38 E8        30.21F
RUSSELL        CLOUDY    79  49  34 E8        30.19F
$$

KSZ061>065-074>080-084>089-242300-
SOUTHWEST KANSAS

CITY           SKY/WX    TMP DP  RH WIND       PRES   REMARKS
DODGE CITY     PTSUNNY   78  50  37 VRB5      30.22F
ELKHART          N/A     75  46  35 S10         N/A
GARDEN CITY    CLOUDY    78  48  34 S15       30.22F
GREAT BEND     CLOUDY    80  51  36 SW3       30.19F
LIBERAL        PTSUNNY   79  50  36 S9G18     30.22F
PRATT          CLOUDY    78  45  31 CALM      30.20S
$$

KSZ066>073-081>083-090>101-242300-
SOUTHEAST KANSAS

CITY           SKY/WX    TMP DP  RH WIND       PRES   REMARKS
CHANUTE        SUNNY     83  45  26 N9G20     30.18F
COFFEYVILLE    SUNNY     84  50  30 N9        30.16F
HUTCHINSON     MOSUNNY   83  47  28 CALM      30.17F
MEDICINE LODGE   N/A     84  50  30 CALM      30.17F
NEWTON         MOSUNNY   84  48  28 NW6       30.19F
PARSONS        MOSUNNY   84  49  29 NW8       30.18F
WICHITA INTL   MOSUNNY   83  52  34 S3        30.17F
WICHITA JABRA  SUNNY     82  53  36 NE7       30.18F
WICHITA MCCONL SUNNY     82  50  32 NE3       30.18F
WINFIELD       SUNNY     83  52  34 N7        30.18F
$$

KSZ007>012-019>026-033>040-048>060-102>105-242300-
NORTHEAST KANSAS

CITY           SKY/WX    TMP DP  RH WIND       PRES   REMARKS
CONCORDIA      PTSUNNY   77  38  24 N8        30.20F
EMPORIA        SUNNY     79  45  29 NW8       30.19F
LAWRENCE       SUNNY     79  49  34 W9        30.18F
MANHATTAN      SUNNY     80  40  23 NW5       30.19F
MARYSVILLE     MOSUNNY   77  41  27 W7        30.19F
OLATHE IND     SUNNY     77  45  32 NW14      30.19F
OLATHE EXE     SUNNY     76  41  28 N13G22    30.19F
SALINA         CLOUDY    84  44  24 W10       30.19F
TOPEKA BILLARD SUNNY     80  45  28 NW13      30.18F
TOPEKA FORBES  SUNNY     81  46  29 N8        30.18F
$$




USA.gov is the U.S. government's official web portal to all federal, state and local government web resources and services.